Vertical_Velocity
-2 -1 -0 -1 -2 3 -0 0 -2 -1 2 -1 -0 -1 7 0 -1 -1 -2 -1 1 -3 2 -1 1 -1 -0 -1 -0 0 -0 -1 -1 1 2 2 -0 0 -1 0 0 -0 0 1 0 -1 0 -0 -0
-1 -1 -1 0 1 1 -2 8 13 -3 -2 2 1 -3 1 -1 -2 -1 -2 1 -0 -1 1 -0 -0 -0 0 -1 -0 -0 -1 -1 -0 1 1 1 -1 -0 -0 -0 -1 0 -0 0 0 -0 -1 0 0
-1 -2 3 3 5 6 7 5 -6 2 -2 1 2 -2 -0 -0 0 -2 -0 -0 -1 -0 -0 -1 0 1 0 -2 0 -1 -2 -0 -1 1 -0 -1 -1 0 1 -1 1 1 1 1 -2 -1 -1 0 0
1 -2 -4 2 0 1 3 -1 -2 -1 -0 1 -2 0 2 1 0 -0 1 0 1 0 0 -1 -1 1 -1 -1 -1 -0 -2 -1 -1 -0 1 0 -1 -1 -2 -2 -1 -1 -1 -0 -3 -1 -1 -1 -1
1 5 1 8 14 -3 2 -2 -10 -2 3 -2 -1 -1 2 -1 -1 0 -1 -1 -1 1 -1 0 -0 1 -1 -1 -0 -1 -1 -1 -0 0 2 1 1 -0 -2 -1 -1 -1 0 -2 -1 -1 -1 -1 -1
-1 -3 -0 1 3 5 -12 8 -3 -1 1 -2 -1 -3 -1 0 -1 -1 -1 1 -1 1 -0 1 -1 -0 -2 0 -0 -1 -1 -0 -1 0 -1 -2 -1 1 -0 -1 -0 -2 -2 -1 -0 -0 0 0 1
-4 -0 4 2 36 -8 -6 4 -6 3 -5 1 2 -1 2 0 -1 -1 0 -1 -1 -0 -1 -0 -1 -2 -1 -1 -0 -2 -0 -0 -1 -1 -1 -2 -2 -1 -2 -2 -1 -1 -1 0 -1 -0 0 -1 -1
4 -2 -7 -2 21 31 63 5 9 -9 6 2 1 -1 -0 -0 -1 1 -1 -2 -1 -0 -2 -0 -1 -0 -2 -0 -2 -1 -2 -2 1 -0 -0 -0 -1 -4 0 1 1 -0 -2 -1 -1 0 -1 -1 -0
2 15 -13 -7 2 5 -1 -2 -4 -3 2 1 3 1 2 1 1 2 -0 -1 -0 -1 -0 -1 -1 0 -1 -0 -2 -1 -2 2 -4 1 -2 -2 -1 1 -2 0 0 -2 -1 -1 -1 1 1 -0 -1
5 6 24 10 4 3 24 0 -0 -6 5 -2 -1 1 1 2 -1 -0 1 1 0 -1 -0 -1 -2 -0 0 -2 -0 -1 0 -1 -0 -4 0 -2 -2 -2 2 -2 2 -0 1 2 3 -2 1 0 2
13 0 -7 -4 -3 6 -5 -2 19 0 -3 -2 -2 -1 2 -2 -2 3 1 1 1 -1 -2 -1 -2 0 1 -2 -1 -1 -0 0 1 -2 -1 -1 -2 -2 2 2 -0 1 0 2 2 -1 -0 -3 -2
-3 1 3 2 3 -2 -2 7 -22 -2 1 0 -1 -3 2 1 -1 -1 3 -2 -4 -0 -1 -1 -2 0 1 -1 -1 -2 0 -0 2 -2 -5 -0 -3 -0 1 -1 2 1 -0 -1 1 -1 1 2 -1
-6 -1 -4 -2 -3 -1 -4 -4 -15 6 1 -0 0 -2 1 1 -1 1 -0 -0 -3 -1 -1 -1 -2 0 -0 -1 -1 -2 -0 -1 -2 -2 -3 -2 -0 1 2 4 -4 5 1 1 -0 -2 2 3 -1
-0 2 1 3 2 -3 -3 1 1 6 0 3 1 -1 3 2 -2 -0 -2 -0 2 -1 -3 -2 -1 -0 0 -3 0 -0 -3 2 -0 0 0 1 -1 -3 1 -2 2 1 -1 0 -0 -3 5 -2 -1
-0 -8 -5 -3 13 16 -7 -1 -9 -9 -2 -5 1 6 -1 6 2 0 1 0 1 4 -3 -0 -2 -0 0 -3 0 0 -2 1 -3 -4 -1 -2 -1 -1 3 5 -2 -1 1 -1 -0 2 -2 -1 -2
-3 -1 -14 4 2 1 10 1 -9 -5 1 0 -1 7 8 6 6 1 0 -1 0 0 -1 0 -3 -1 0 0 -1 -1 0 -2 -2 1 -3 -3 -1 -3 -3 -2 -3 -0 3 4 -0 -2 0 -3 -3
-7 -2 -2 -1 -1 -0 -1 6 3 1 -2 -1 2 -3 0 6 6 8 5 3 -3 0 4 -1 -2 -1 -1 -1 -1 -1 -1 -1 -0 0 -1 -2 -2 -0 -2 -1 1 -1 -0 -2 1 1 1 -1 1
4 1 -0 2 -5 2 1 7 -1 4 -1 -17 18 -8 0 0 3 6 6 5 2 0 -0 1 -0 -1 -2 -1 -1 -2 -2 -1 -2 -3 -2 -1 -2 -1 -2 -2 -2 -0 1 0 -2 -2 -0 0 1
4 -0 1 3 2 -3 1 5 -1 -9 -9 -3 1 6 -3 -1 2 -0 -3 2 -0 2 1 -0 -1 1 -0 -2 -1 -0 -1 -1 -1 -2 -1 -0 0 1 1 3 -0 -1 -2 1 -0 0 -0 -0 -0
1 2 -5 -0 2 1 -0 7 -2 -6 1 -9 -13 -7 -4 2 -4 1 -1 -0 1 -0 2 0 0 1 0 -1 -2 1 1 -1 1 -0 1 -1 -1 0 1 1 -0 -2 -1 0 -0 1 -1 -3 2
-2 -1 1 -4 3 1 11 5 -4 13 -6 -3 -10 25 5 -7 -0 -4 2 -1 2 2 1 1 0 -3 -1 -1 -1 -0 2 -0 -1 -1 -0 -0 0 -0 -0 -1 -1 -0 -0 1 1 0 -1 -2 -1
-4 4 4 2 -4 -4 13 1 10 8 -20 7 3 -3 -1 -0 3 -6 0 -2 2 -1 2 1 2 -0 -2 -1 -1 -3 -2 1 2 -0 -1 -1 -0 -1 0 0 -1 -0 1 -0 0 0 -1 -1 0
14 3 4 5 -5 3 1 6 -4 20 11 -16 -5 -6 -6 -3 8 1 -9 -1 5 1 0 0 0 -1 -1 -1 -1 -0 -2 0 1 -1 -1 -1 -1 -2 -2 -0 0 -0 0 -1 0 -1 -1 -0 -0
9 2 2 7 0 -15 -5 5 5 -8 -7 13 5 -15 -11 13 -1 -1 -11 -2 2 2 1 0 4 0 -1 -0 -1 -0 -1 -1 -1 -1 0 -0 -2 -1 -1 -0 0 0 1 0 -0 -1 0 -0 -0
5 1 -4 -8 -16 -10 2 -11 -7 9 4 7 -16 -2 -9 -11 1 8 -3 -3 -1 6 -1 -1 1 1 1 -1 0 1 1 -0 0 1 -0 -1 1 0 1 0 -0 1 -2 -1 -1 0 1 1 -0
-4 0 9 4 -6 -2 1 -30 8 1 -2 10 18 -5 -2 -17 3 14 -8 0 -3 1 4 2 -0 -2 0 1 -1 -1 1 1 0 1 1 0 -0 -1 1 -1 -1 -2 -0 -2 1 1 0 0 0
12 -24 20 1 6 -1 3 0 2 -3 -3 -2 2 16 5 -9 -11 -10 6 4 -5 -1 4 3 2 -2 -3 -3 -2 -1 1 2 1 -0 -0 1 0 -1 -2 -0 -2 -2 -0 -0 -0 0 1 -0 1
-5 22 -9 -4 -11 -7 -6 -1 3 -9 -0 -4 -3 11 -7 -4 -10 -0 11 -3 -2 -1 1 -1 1 -0 -4 -4 -3 1 1 2 0 2 -0 1 0 1 -3 -0 -1 1 -1 1 -2 -2 -1 -2 -0
5 -12 -10 17 -6 0 -2 -10 -0 11 2 -1 8 -5 -5 -10 -10 4 1 0 -0 -2 2 -3 -0 1 2 3 2 1 -1 -1 1 -1 -0 -1 0 1 -1 0 0 -0 -0 -1 1 0 1 -1 1
8 1 -2 -5 -6 -5 -1 -16 -5 -5 -7 7 -6 13 2 4 -8 -5 2 6 -1 0 1 1 -1 2 1 -1 -0 -1 0 -1 -2 -2 -2 -1 -3 -1 -3 -4 -3 -0 0 1 -2 -1 0 1 1
Height
5881 5881 5881 5880 5880 5880 5882 5883 5884 5887 5888 5889 5892 5894 5894 5894 5897 5899 5898 5899 5899 5899 5900 5899 5898 5898 5898 5898 5897 5898 5899 5900 5901 5903 5905 5907 5908 5910 5910 5911 5912 5912 5912 5913 5913 5912 5911 5910 5909
5882 5882 5883 5882 5884 5874 5881 5885 5885 5888 5890 5892 5895 5894 5896 5895 5897 5897 5898 5900 5900 5899 5900 5899 5899 5900 5899 5899 5898 5899 5900 5901 5902 5904 5907 5909 5910 5911 5912 5912 5913 5914 5914 5914 5914 5913 5912 5911 5910
5882 5883 5884 5883 5884 5876 5884 5887 5887 5890 5893 5895 5897 5896 5896 5896 5897 5898 5899 5900 5900 5900 5901 5899 5900 5901 5900 5899 5900 5901 5902 5904 5905 5906 5908 5910 5911 5912 5912 5913 5914 5914 5915 5915 5916 5914 5913 5910 5908
5882 5884 5885 5885 5884 5885 5888 5889 5891 5891 5895 5896 5897 5897 5899 5898 5898 5899 5900 5901 5901 5902 5901 5901 5901 5901 5902 5901 5901 5903 5905 5906 5907 5909 5910 5910 5912 5912 5913 5914 5915 5915 5916 5917 5916 5915 5913 5911 5909
5881 5883 5885 5883 5883 5884 5885 5887 5889 5893 5896 5897 5898 5898 5899 5897 5898 5899 5900 5902 5902 5903 5902 5903 5902 5901 5902 5903 5903 5905 5907 5908 5910 5912 5913 5913 5914 5914 5914 5915 5916 5917 5918 5918 5917 5916 5915 5913 5910
5879 5881 5882 5883 5882 5881 5882 5889 5892 5894 5897 5898 5898 5898 5899 5898 5898 5899 5901 5902 5902 5902 5903 5903 5903 5902 5904 5905 5905 5907 5909 5911 5913 5914 5914 5915 5916 5917 5917 5916 5916 5917 5918 5918 5918 5917 5916 5915 5912
5879 5880 5880 5881 5865 5879 5883 5889 5889 5893 5893 5896 5897 5898 5899 5898 5898 5899 5901 5902 5903 5903 5903 5904 5903 5903 5905 5906 5908 5909 5910 5913 5915 5916 5916 5916 5916 5918 5920 5920 5920 5920 5921 5921 5920 5919 5918 5917 5916
5878 5880 5878 5884 5883 5879 5866 5887 5891 5890 5893 5894 5896 5897 5898 5898 5899 5900 5901 5902 5903 5904 5903 5904 5904 5905 5907 5908 5910 5911 5913 5915 5918 5919 5919 5920 5920 5920 5923 5924 5925 5924 5924 5922 5922 5921 5921 5921 5919
5880 5882 5870 5880 5883 5880 5885 5888 5888 5890 5893 5894 5895 5897 5897 5898 5898 5900 5901 5901 5903 5904 5904 5905 5905 5906 5909 5911 5912 5913 5914 5918 5921 5923 5923 5923 5924 5927 5925 5927 5927 5926 5927 5926 5926 5925 5923 5923 5923
5881 5883 5876 5882 5883 5884 5885 5885 5886 5889 5895 5894 5895 5896 5897 5897 5898 5899 5901 5902 5903 5904 5906 5906 5906 5908 5910 5913 5914 5915 5917 5920 5926 5928 5928 5928 5927 5930 5931 5929 5929 5929 5929 5930 5929 5928 5926 5925 5925
5880 5882 5883 5885 5883 5882 5881 5884 5887 5886 5892 5892 5893 5895 5897 5897 5898 5901 5902 5903 5904 5905 5907 5907 5908 5910 5912 5914 5916 5917 5919 5923 5927 5929 5929 5931 5932 5933 5934 5931 5931 5931 5931 5931 5931 5930 5928 5926 5927
5876 5880 5882 5882 5884 5884 5883 5884 5883 5886 5892 5892 5894 5894 5896 5897 5898 5900 5902 5902 5903 5905 5907 5908 5910 5911 5914 5916 5918 5920 5922 5926 5929 5932 5934 5935 5935 5935 5935 5933 5933 5932 5932 5932 5932 5931 5930 5929 5927
5874 5879 5879 5883 5881 5883 5884 5885 5886 5885 5890 5893 5893 5894 5895 5896 5897 5901 5902 5904 5904 5906 5908 5909 5911 5913 5915 5918 5921 5922 5926 5929 5930 5933 5935 5936 5937 5937 5936 5935 5933 5934 5934 5933 5932 5930 5932 5930 5928
5873 5877 5879 5881 5880 5882 5885 5887 5887 5891 5892 5894 5892 5893 5896 5896 5897 5900 5902 5905 5907 5907 5908 5910 5912 5915 5917 5920 5923 5924 5927 5932 5933 5935 5937 5939 5937 5935 5936 5935 5934 5935 5936 5935 5933 5932 5932 5930 5929
5868 5870 5873 5876 5876 5883 5883 5884 5882 5885 5890 5890 5892 5896 5896 5897 5897 5899 5903 5906 5907 5909 5909 5911 5914 5916 5919 5921 5925 5926 5928 5932 5933 5934 5936 5936 5936 5937 5938 5937 5936 5937 5935 5935 5934 5933 5931 5931 5929
5862 5865 5866 5874 5880 5882 5883 5881 5880 5884 5887 5890 5891 5894 5896 5898 5898 5897 5900 5904 5906 5908 5910 5912 5914 5917 5921 5924 5926 5927 5929 5932 5935 5937 5937 5938 5940 5940 5939 5939 5939 5939 5939 5938 5935 5932 5931 5930 5931
5856 5858 5863 5868 5874 5880 5882 5884 5885 5883 5883 5888 5889 5890 5892 5896 5897 5899 5901 5903 5905 5908 5910 5912 5915 5917 5921 5925 5927 5929 5931 5933 5936 5938 5939 5939 5939 5940 5940 5940 5940 5940 5938 5936 5934 5932 5931 5930 5931
5852 5855 5861 5866 5871 5877 5881 5883 5881 5879 5881 5883 5889 5887 5889 5891 5891 5895 5900 5902 5905 5907 5909 5912 5915 5918 5922 5926 5928 5931 5933 5935 5937 5939 5940 5941 5940 5942 5942 5941 5940 5940 5940 5938 5937 5937 5935 5934 5933
5848 5852 5858 5863 5868 5873 5878 5881 5878 5872 5879 5885 5888 5890 5885 5892 5891 5890 5893 5899 5901 5906 5909 5912 5915 5919 5922 5925 5929 5932 5935 5937 5939 5940 5941 5943 5943 5944 5945 5945 5944 5944 5942 5942 5940 5939 5937 5935 5935
5841 5846 5851 5857 5864 5870 5874 5880 5868 5875 5876 5879 5879 5884 5886 5893 5889 5891 5893 5896 5900 5903 5909 5912 5916 5919 5922 5925 5929 5933 5936 5938 5940 5941 5943 5945 5945 5946 5946 5946 5946 5945 5944 5943 5942 5941 5939 5937 5938
5834 5840 5847 5853 5861 5866 5873 5876 5870 5873 5877 5876 5873 5878 5886 5890 5890 5890 5891 5896 5899 5902 5907 5911 5915 5918 5922 5925 5929 5933 5936 5938 5941 5942 5944 5946 5947 5947 5947 5948 5947 5947 5946 5945 5944 5943 5942 5940 5939
5827 5837 5842 5847 5852 5856 5866 5867 5871 5867 5872 5878 5880 5881 5883 5886 5891 5887 5891 5896 5900 5901 5905 5911 5914 5917 5922 5926 5929 5933 5935 5938 5941 5942 5944 5947 5948 5948 5949 5949 5949 5949 5948 5947 5947 5946 5945 5944 5943
5825 5830 5835 5841 5843 5849 5853 5861 5864 5867 5867 5870 5874 5878 5880 5883 5889 5886 5888 5895 5900 5902 5904 5909 5913 5916 5921 5925 5928 5932 5935 5938 5940 5941 5944 5946 5948 5949 5950 5950 5951 5950 5950 5949 5948 5947 5947 5946 5945
5817 5820 5826 5833 5837 5832 5843 5850 5856 5860 5864 5867 5866 5870 5872 5877 5881 5886 5888 5889 5897 5901 5904 5907 5912 5915 5919 5923 5927 5931 5934 5937 5940 5941 5943 5945 5947 5949 5950 5951 5951 5950 5950 5949 5949 5948 5948 5947 5947
5805 5810 5816 5820 5821 5824 5839 5841 5846 5857 5863 5869 5862 5864 5870 5874 5882 5889 5886 5889 5892 5898 5901 5905 5910 5913 5917 5921 5926 5930 5933 5936 5939 5942 5944 5945 5947 5948 5949 5950 5950 5950 5950 5949 5948 5948 5948 5948 5948
5800 5806 5809 5810 5816 5825 5834 5831 5840 5850 5857 5865 5867 5864 5865 5870 5880 5885 5882 5887 5889 5895 5900 5902 5907 5911 5914 5919 5922 5927 5932 5935 5938 5941 5943 5945 5945 5946 5947 5948 5948 5950 5950 5950 5949 5949 5948 5948 5948
5792 5793 5806 5811 5817 5820 5826 5834 5840 5846 5849 5854 5860 5861 5860 5864 5870 5876 5884 5885 5886 5892 5897 5900 5903 5908 5912 5916 5920 5925 5929 5933 5936 5938 5941 5943 5944 5943 5944 5946 5947 5948 5949 5949 5949 5948 5948 5947 5947
5782 5794 5798 5801 5807 5811 5820 5826 5835 5837 5841 5846 5850 5858 5857 5861 5864 5873 5881 5880 5883 5888 5893 5897 5900 5904 5909 5913 5918 5923 5926 5930 5933 5935 5936 5938 5940 5941 5941 5943 5944 5946 5946 5946 5946 5946 5946 5946 5946
5774 5779 5789 5800 5803 5807 5815 5821 5829 5835 5839 5841 5848 5850 5855 5857 5859 5870 5874 5879 5881 5885 5890 5894 5898 5902 5907 5911 5916 5920 5923 5926 5929 5931 5933 5935 5936 5936 5937 5939 5941 5942 5943 5943 5943 5944 5944 5943 5943
5767 5774 5783 5787 5798 5805 5813 5815 5819 5827 5832 5839 5842 5850 5851 5857 5858 5864 5871 5876 5879 5883 5888 5893 5896 5900 5904 5907 5912 5916 5920 5923 5926 5928 5930 5931 5932 5933 5935 5935 5937 5938 5938 5939 5940 5940 5940 5941 5940